1485223200.89,43961,9.25,73346.8,-8.41,-41.41,-41.49,0,*5C
1485223202.16,43962,9.19,73346.3,-8.39,-41.41,-41.67,0,*5C
1485223203.39,43963,9.19,73346.0,-8.41,-41.61,-41.81,0,*58
1485223204.65,43964,9.25,73348.8,-8.41,-41.67,-41.93,0,*5A
1485223205.93,43965,9.25,73346.5,-8.39,-41.67,-41.81,0,*57
1485223207.21,43966,9.25,73348.5,-8.39,-41.67,-41.93,0,*57
1485223208.49,43967,9.25,73350.5,-8.39,-41.81,-42.05,0,*52
1485223209.72,43968,9.19,73346.3,-8.41,-41.49,-41.81,0,*59
1485223210.92,43969,9.19,73348.0,-8.41,-41.41,-41.49,0,*54
1485223212.16,43970,9.19,73344.5,-8.41,-41.49,-41.67,0,*58
1485223213.39,43971,9.25,73350.3,-8.39,-41.41,-41.61,0,*58
1485223214.62,43972,9.25,73348.8,-8.41,-41.61,-41.93,0,*5B
1485223215.88,43973,9.19,73344.8,-8.39,-41.81,-42.13,0,*50
1485223217.1,43974,9.19,73346.5,-8.43,-41.73,-42.13,0,*57
1485223218.36,43975,9.19,73344.8,-8.43,-41.55,-41.87,0,*5C
1485223219.57,43976,9.19,73346.0,-8.41,-41.49,-41.61,0,*58
1485223220.77,43977,9.19,73346.5,-8.41,-41.49,-41.61,0,*59
1485223221.98,43978,9.25,73348.5,-8.41,-41.49,-41.61,0,*56
1485223223.21,43979,9.25,73348.3,-8.39,-41.29,-41.41,0,*5C
1485223224.45,43980,9.19,73344.5,-8.41,-41.49,-41.67,0,*57
1485223225.67,43981,9.19,73346.5,-8.41,-41.49,-41.81,0,*5E
1485223226.88,43982,9.19,73346.8,-8.41,-41.29,-41.41,0,*57
1485223228.09,43983,9.19,73344.3,-8.41,-41.11,-41.11,0,*58
1485223229.33,43984,9.25,73348.8,-8.41,-41.23,-41.41,0,*5B
1485223230.57,43985,9.19,73346.5,-8.41,-41.61,-41.67,0,*58
1485223231.82,43986,9.25,73346.0,-8.41,-41.67,-41.93,0,*56
1485223233.08,43987,9.19,73344.8,-8.41,-41.67,-41.93,0,*57
1485223234.31,43988,9.25,73348.0,-8.43,-41.87,-42.13,0,*5F
1485223235.57,43989,9.25,73348.3,-8.43,-41.87,-42.19,0,*54
1485223236.83,43990,9.25,73350.8,-8.43,-41.99,-42.19,0,*53
1485223238.09,43991,9.19,73346.0,-8.43,-41.93,-42.13,0,*52
1485223239.31,43992,9.25,73346.5,-8.43,-41.73,-42.13,0,*5F
1485223240.57,43993,9.25,73348.5,-8.43,-41.67,-41.87,0,*55
1485223241.81,43994,9.25,73346.5,-8.45,-41.93,-42.13,0,*51
1485223243.05,43995,9.19,73346.0,-8.45,-41.67,-41.99,0,*5A
1485223244.27,43996,9.19,73344.5,-8.45,-41.73,-42.13,0,*5D
1485223245.52,43997,9.19,73346.3,-8.43,-41.99,-42.19,0,*54
1485223246.81,43998,9.25,73346.8,-8.43,-41.93,-42.19,0,*51
1485223248.04,43999,9.19,73344.0,-8.43,-41.87,-42.13,0,*5F
1485223249.25,44000,9.19,73346.0,-8.45,-41.73,-42.13,0,*5C
1485223250.51,44001,9.19,73346.5,-8.43,-41.67,-41.99,0,*5F
1485223251.77,44002,9.25,73346.5,-8.43,-41.55,-41.73,0,*59
1485223252.98,44003,9.25,73348.5,-8.45,-41.87,-41.99,0,*55
1485223254.27,44004,9.19,73346.3,-8.43,-41.93,-42.19,0,*5A
1485223255.52,44005,9.25,73350.5,-8.47,-41.73,-41.93,0,*50
1485223256.76,44006,9.19,73344.0,-8.45,-41.67,-41.99,0,*5E
1485223258.01,44007,9.25,73346.8,-8.45,-41.55,-41.73,0,*5A
1485223259.25,44008,9.25,73348.5,-8.45,-41.67,-41.73,0,*54
1485223260.49,44009,9.25,73346.8,-8.45,-41.55,-41.73,0,*54
1485223261.73,44010,9.25,73348.8,-8.45,-41.67,-41.99,0,*59
1485223262.98,44011,9.19,73346.8,-8.45,-41.67,-41.99,0,*58
1485223264.19,44012,9.19,73348.0,-8.45,-41.49,-41.73,0,*53
1485223265.43,44013,9.19,73346.8,-8.45,-41.49,-41.67,0,*57
1485223266.71,44014,9.19,73346.5,-8.45,-41.35,-41.55,0,*5A
1485223267.92,44015,9.19,73344.5,-8.45,-41.73,-41.73,0,*5D
1485223269.2,44016,9.19,73346.3,-8.47,-41.81,-41.93,0,*5F
1485223270.46,44017,9.25,73348.5,-8.47,-41.61,-41.81,0,*53
1485223271.72,44018,9.19,73346.8,-8.47,-41.61,-41.93,0,*5F
1485223273.0,44019,9.19,73346.8,-8.47,-41.81,-42.19,0,*51
1485223274.29,44020,9.19,73344.0,-8.47,-41.81,-41.93,0,*5A
1485223275.55,44021,9.19,73344.5,-8.47,-41.73,-42.19,0,*57
1485223276.83,44022,9.19,73344.3,-8.47,-41.81,-42.05,0,*54
1485223278.11,44023,9.25,73346.0,-8.47,-41.81,-41.93,0,*59
1485223279.37,44024,9.25,73348.3,-8.47,-41.73,-42.05,0,*5F
1485223280.63,44025,9.25,73348.3,-8.47,-41.61,-41.81,0,*52
1485223281.89,44026,9.19,73346.3,-8.47,-41.61,-41.81,0,*51
1485223283.14,44027,9.25,73346.8,-8.47,-41.73,-41.93,0,*50
1485223284.43,44028,9.25,73346.0,-8.47,-41.93,-42.05,0,*5D
1485223285.63,44029,9.25,73350.3,-8.49,-41.61,-41.61,0,*5E
1485223286.87,44030,9.19,73344.5,-8.47,-41.41,-41.61,0,*5A
1485223288.13,44031,9.19,73346.5,-8.47,-41.61,-41.81,0,*57
1485223289.36,44032,9.19,73348.0,-8.47,-41.61,-41.73,0,*59
1485223290.62,44033,9.25,73346.8,-8.47,-41.61,-41.81,0,*55
1485223291.86,44034,9.19,73346.0,-8.47,-41.61,-41.73,0,*5F
1485223293.12,44035,9.19,73346.3,-8.47,-41.61,-41.81,0,*53
1485223294.36,44036,9.19,73344.5,-8.47,-41.41,-41.41,0,*5E
1485223295.59,44037,9.19,73346.3,-8.49,-41.55,-41.61,0,*56
1485223296.82,44038,9.19,73346.0,-8.47,-41.41,-41.61,0,*52
1485223298.09,44039,9.25,73344.8,-8.47,-41.41,-41.55,0,*54
1485223299.35,44040,9.25,73346.5,-8.49,-41.35,-41.35,0,*51
1485223300.64,44041,9.25,73348.5,-8.47,-41.35,-41.55,0,*58
1485223301.88,44042,9.25,73348.3,-8.49,-41.41,-41.55,0,*56
1485223303.12,44043,9.25,73348.0,-8.49,-41.41,-41.55,0,*57
1485223304.41,44044,9.19,73344.5,-8.47,-41.35,-41.35,0,*5B
1485223305.65,44045,9.25,73346.3,-8.47,-41.61,-41.73,0,*59
1485223306.88,44046,9.19,73344.8,-8.49,-41.61,-41.81,0,*59
1485223308.12,44047,9.19,73346.0,-8.47,-41.61,-41.73,0,*5B
1485223309.38,44048,9.19,73344.3,-8.47,-41.55,-41.73,0,*53
1485223310.67,44049,9.19,73346.0,-8.47,-41.23,-41.23,0,*56
1485223311.97,44050,9.19,73344.8,-8.47,-41.23,-41.35,0,*59
1485223313.22,44051,9.19,73344.8,-8.47,-41.55,-41.61,0,*58
1485223314.51,44052,9.19,73344.3,-8.47,-41.81,-42.05,0,*53
1485223315.76,44053,9.19,73344.0,-8.49,-41.81,-41.93,0,*50
1485223317.0,44054,9.19,73344.5,-8.49,-41.61,-41.81,0,*5A
1485223318.23,44055,9.19,73344.3,-8.47,-41.61,-41.73,0,*58
1485223319.46,44056,9.19,73344.3,-8.49,-41.73,-41.93,0,*58
1485223320.72,44057,9.25,73350.0,-8.47,-41.73,-41.81,0,*54
1485223321.95,44058,9.19,73344.8,-8.49,-41.55,-41.73,0,*5C
1485223323.22,44059,9.19,73346.5,-8.47,-41.41,-41.55,0,*52
1485223324.45,44060,9.25,73346.8,-8.49,-41.61,-41.81,0,*5D
1485223325.71,44061,9.25,73348.0,-8.47,-41.55,-41.73,0,*58
1485223326.97,44062,9.19,73346.3,-8.47,-41.55,-41.61,0,*58
1485223328.2,44063,9.19,73344.0,-8.49,-41.55,-41.73,0,*54
1485223329.46,44064,9.19,73346.3,-8.47,-41.61,-41.81,0,*57
1485223330.7,44065,9.19,73346.0,-8.49,-41.61,-41.81,0,*58
1485223331.95,44066,9.19,73344.8,-8.47,-41.61,-41.81,0,*55
1485223333.21,44067,9.19,73346.5,-8.47,-41.73,-41.93,0,*54
1485223334.47,44068,9.25,73346.5,-8.47,-41.55,-41.73,0,*51
1485223335.73,44069,9.19,73346.5,-8.49,-41.23,-41.23,0,*5A
1485223337.02,44070,9.19,73344.0,-8.47,-41.55,-41.55,0,*5C
1485223338.31,44071,9.19,73344.0,-8.47,-41.55,-41.81,0,*54
1485223339.53,44072,9.19,73344.0,-8.49,-41.73,-41.93,0,*5E
1485223340.8,44073,9.25,73350.3,-8.47,-41.41,-41.55,0,*5A
1485223342.01,44074,9.19,73344.0,-8.49,-41.61,-41.73,0,*55
1485223343.27,44075,9.25,73348.8,-8.47,-41.61,-41.81,0,*57
1485223344.48,44076,9.25,73346.5,-8.49,-41.61,-41.61,0,*54
1485223345.69,44077,9.19,73344.0,-8.49,-41.61,-41.73,0,*56
1485223346.94,44078,9.19,73346.5,-8.47,-41.55,-41.61,0,*53
1485223348.15,44079,9.19,73346.3,-8.49,-41.41,-41.61,0,*59
1485223349.41,44080,9.19,73344.8,-8.47,-41.55,-41.61,0,*54
1485223350.7,44081,9.19,73342.8,-8.47,-41.55,-41.55,0,*52
1485223351.93,44082,9.19,73346.0,-8.49,-41.55,-41.61,0,*58
1485223353.2,44083,9.19,73344.0,-8.47,-41.23,-41.41,0,*54
1485223354.43,44084,9.19,73344.5,-8.47,-41.41,-41.61,0,*55
1485223355.7,44085,9.19,73344.5,-8.47,-41.41,-41.55,0,*53
1485223356.9,44086,9.19,73344.5,-8.49,-41.41,-41.61,0,*59
1485223358.17,44087,9.25,73348.0,-8.47,-41.55,-41.73,0,*50
1485223359.42,44088,9.19,73346.8,-8.47,-41.61,-41.81,0,*55
1485223360.66,44089,9.19,73344.0,-8.47,-41.61,-41.73,0,*59
1485223361.92,44090,9.19,73346.0,-8.47,-41.61,-41.81,0,*5C
1485223363.16,44091,9.19,73346.8,-8.47,-41.61,-41.73,0,*50
1485223364.37,44092,9.19,73346.3,-8.49,-41.61,-41.73,0,*5D
1485223365.63,44093,9.19,73344.0,-8.47,-41.55,-41.61,0,*56
1485223366.89,44094,9.19,73344.8,-8.47,-41.55,-41.61,0,*51
1485223368.15,44095,9.19,73342.3,-8.47,-41.61,-41.81,0,*59
1485223369.41,44096,9.25,73346.8,-8.49,-41.93,-42.19,0,*5B
1485223370.67,44097,9.25,73346.8,-8.47,-41.61,-41.81,0,*5B
1485223371.88,44098,9.19,73346.3,-8.49,-41.61,-41.73,0,*57
1485223373.13,44099,9.25,73346.8,-8.47,-41.73,-41.81,0,*56
1485223374.34,44100,9.19,73342.8,-8.49,-41.41,-41.61,0,*56
1485223375.58,44101,9.19,73346.8,-8.49,-41.35,-41.41,0,*56
1485223376.87,44102,9.25,73348.3,-8.47,-41.35,-41.55,0,*5E
1485223378.11,44103,9.19,73346.0,-8.49,-41.55,-41.73,0,*53
1485223379.36,44104,9.25,73346.8,-8.47,-41.73,-41.93,0,*50
1485223380.62,44105,9.19,73346.3,-8.47,-41.61,-41.81,0,*51
1485223381.88,44106,9.19,73344.5,-8.47,-41.41,-41.55,0,*59
1485223383.12,44107,9.19,73344.8,-8.49,-41.41,-41.55,0,*56
1485223384.39,44108,9.19,73346.8,-8.49,-41.35,-41.55,0,*5A
1485223385.65,44109,9.19,73342.5,-8.47,-41.35,-41.41,0,*50
1485223386.92,44110,9.19,73344.5,-8.49,-41.23,-41.35,0,*52
1485223388.18,44111,9.19,73346.3,-8.47,-41.35,-41.61,0,*5B
1485223389.41,44112,9.19,73344.0,-8.49,-41.55,-41.73,0,*53
1485223390.68,44113,9.19,73344.0,-8.47,-41.55,-41.73,0,*5C
1485223391.91,44114,9.25,73348.5,-8.49,-41.55,-41.73,0,*55
1485223393.14,44115,9.25,73350.5,-8.49,-41.73,-41.93,0,*5E
1485223394.42,44116,9.25,73348.5,-8.47,-41.81,-41.93,0,*5E
1485223395.67,44117,9.25,73348.5,-8.47,-41.73,-41.93,0,*52
1485223396.95,44118,9.19,73346.0,-8.47,-41.81,-41.93,0,*50
1485223398.21,44119,9.25,73348.5,-8.47,-41.61,-41.81,0,*5C
1485223399.47,44120,9.19,73344.8,-8.47,-41.61,-41.93,0,*55
1485223400.7,44121,9.19,73344.8,-8.49,-41.73,-42.05,0,*55
1485223401.96,44122,9.19,73344.0,-8.49,-41.81,-42.19,0,*56
1485223403.2,44123,9.19,73346.5,-8.49,-41.93,-42.25,0,*5B
1485223404.43,44124,9.25,73350.3,-8.51,-41.87,-42.13,0,*55
1485223405.69,44125,9.19,73346.8,-8.49,-41.93,-42.19,0,*52
1485223406.93,44126,9.19,73344.5,-8.49,-41.99,-42.19,0,*5B
1485223408.18,44127,9.19,73348.0,-8.49,-41.93,-42.05,0,*5D
1485223409.42,44128,9.19,73346.8,-8.55,-41.73,-41.67,0,*56
1485223410.65,44129,9.19,73344.0,-8.51,-41.41,-41.61,0,*54
1485223411.89,44130,9.19,73346.8,-8.51,-41.41,-41.41,0,*5E
1485223413.1,44131,9.25,73346.8,-8.49,-41.73,-41.73,0,*56
1485223414.36,44132,9.19,73344.0,-8.49,-41.81,-41.81,0,*55
1485223415.59,44133,9.19,73344.3,-8.49,-41.73,-42.05,0,*56
1485223416.85,44134,9.19,73344.0,-8.51,-41.67,-41.99,0,*5B
1485223418.06,44135,9.19,73344.5,-8.55,-41.41,-41.61,0,*5D
1485223419.32,44136,9.19,73342.5,-8.51,-41.23,-41.29,0,*52
1485223420.59,44137,9.25,73344.8,-8.51,-41.23,-41.41,0,*5D
1485223421.84,44138,9.25,73346.8,-8.51,-41.61,-41.81,0,*58
1485223423.1,44139,9.19,73346.3,-8.51,-41.81,-42.25,0,*5A
1485223424.34,44140,9.19,73346.3,-8.51,-41.87,-42.13,0,*57
1485223425.6,44141,9.19,73344.5,-8.51,-41.81,-41.87,0,*5E
1485223426.86,44142,9.19,73344.8,-8.51,-41.81,-42.13,0,*53
1485223428.13,44143,9.19,73344.8,-8.51,-41.67,-41.87,0,*54
1485223429.39,44144,9.19,73344.5,-8.51,-41.81,-41.99,0,*54
1485223430.62,44145,9.19,73344.3,-8.51,-41.49,-41.61,0,*56
1485223431.88,44146,9.19,73346.5,-8.51,-41.81,-41.87,0,*59
1485223433.17,44147,9.19,73344.5,-8.51,-41.67,-41.81,0,*56
1485223434.43,44148,9.19,73340.5,-8.51,-41.67,-41.99,0,*50
1485223435.69,44149,9.19,73344.3,-8.51,-41.81,-41.99,0,*59
1485223436.92,44150,9.19,73346.5,-8.51,-41.99,-42.13,0,*59
1485223438.18,44151,9.19,73346.0,-8.55,-41.93,-42.19,0,*5C
1485223439.44,44152,9.25,73344.8,-8.51,-41.81,-42.13,0,*52
1485223440.72,44153,9.25,73346.5,-8.51,-41.67,-41.81,0,*53
1485223441.93,44154,9.19,73342.5,-8.55,-41.87,-42.13,0,*56
1485223443.19,44155,9.19,73344.3,-8.55,-42.05,-42.31,0,*5E
1485223444.43,44156,9.19,73346.0,-8.55,-42.19,-42.37,0,*56
1485223445.66,44157,9.19,73346.3,-8.55,-42.19,-42.37,0,*57
1485223446.92,44158,9.19,73346.5,-8.55,-42.05,-42.31,0,*53
1485223448.15,44159,9.19,73346.0,-8.55,-41.87,-42.05,0,*5C
1485223449.41,44160,9.19,73342.3,-8.55,-41.55,-41.67,0,*5E
1485223450.65,44161,9.19,73344.3,-8.55,-41.49,-41.67,0,*52
1485223451.91,44162,9.19,73344.0,-8.59,-41.55,-41.67,0,*50
1485223453.17,44163,9.19,73344.0,-8.59,-41.67,-41.67,0,*50
1485223454.4,44164,9.19,73344.0,-8.59,-41.49,-41.55,0,*5A
1485223455.67,44165,9.19,73346.8,-8.55,-41.35,-41.55,0,*5C
1485223456.9,44166,9.19,73344.8,-8.55,-41.67,-41.73,0,*5C
1485223458.14,44167,9.19,73346.0,-8.55,-41.67,-41.73,0,*5D
1485223459.37,44168,9.19,73346.3,-8.55,-41.67,-41.87,0,*59
1485223460.63,44169,9.19,73346.5,-8.55,-41.67,-41.93,0,*5D
1485223461.86,44170,9.19,73346.5,-8.59,-41.67,-41.87,0,*5C
1485223463.1,44171,9.19,73344.0,-8.59,-41.67,-41.73,0,*56
1485223464.33,44172,9.19,73344.3,-8.55,-41.67,-41.87,0,*52
1485223465.59,44173,9.19,73346.0,-8.51,-41.61,-41.81,0,*57
1485223466.83,44174,9.19,73344.0,-8.55,-41.49,-41.55,0,*57
1485223468.06,44175,9.19,73346.0,-8.55,-41.49,-41.67,0,*57
1485223469.27,44176,9.19,73342.5,-8.55,-41.17,-41.29,0,*55
1485223470.5,44177,9.25,73346.5,-8.55,-41.29,-41.35,0,*54
1485223471.74,44178,9.19,73344.5,-8.55,-41.41,-41.67,0,*52
1485223472.97,44179,9.19,73344.5,-8.55,-41.49,-41.55,0,*5A
1485223474.2,44180,9.19,73346.3,-8.55,-41.55,-41.73,0,*55
1485223475.46,44181,9.19,73346.3,-8.51,-41.61,-41.81,0,*5A
1485223476.69,44182,9.25,73348.0,-8.55,-41.73,-41.93,0,*5D
1485223477.95,44183,9.19,73346.5,-8.55,-41.55,-41.67,0,*53
1485223479.18,44184,9.19,73346.5,-8.55,-41.35,-41.49,0,*5E
1485223480.45,44185,9.19,73344.0,-8.51,-41.23,-41.29,0,*5A
1485223481.71,44186,9.19,73346.0,-8.51,-41.23,-41.29,0,*59
1485223482.97,44187,9.19,73346.8,-8.51,-41.61,-41.81,0,*5C
1485223484.23,44188,9.19,73344.0,-8.51,-41.61,-41.81,0,*53
1485223485.49,44189,9.19,73346.5,-8.51,-41.61,-41.81,0,*52
1485223486.69,44190,9.19,73346.8,-8.55,-41.61,-41.61,0,*50
1485223487.92,44191,9.19,73340.5,-8.55,-41.49,-41.55,0,*5C
1485223489.18,44192,9.19,73346.5,-8.55,-41.67,-41.93,0,*59
1485223490.4,44193,9.19,73346.3,-8.55,-41.73,-41.93,0,*5D
1485223491.64,44194,9.19,73346.5,-8.51,-41.87,-42.25,0,*5B
1485223492.91,44195,9.19,73344.3,-8.51,-41.67,-41.87,0,*5F
1485223494.17,44196,9.19,73344.0,-8.55,-41.67,-41.67,0,*56
1485223495.43,44197,9.19,73340.8,-8.51,-41.61,-41.81,0,*5D
1485223496.67,44198,9.19,73342.5,-8.55,-41.67,-41.73,0,*5D
1485223497.91,44199,9.19,73340.8,-8.55,-41.67,-41.87,0,*57
1485223499.14,44200,9.19,73340.5,-8.55,-41.67,-41.73,0,*5F
1485223500.38,44201,9.19,73344.0,-8.55,-41.67,-41.87,0,*55
1485223501.61,44202,9.19,73344.5,-8.51,-41.49,-41.61,0,*56
1485223502.87,44203,9.19,73340.0,-8.55,-41.35,-41.55,0,*5F
1485223504.08,44204,9.19,73342.3,-8.55,-41.41,-41.49,0,*56
1485223505.28,44205,9.19,73342.8,-8.55,-41.41,-41.49,0,*57
1485223506.52,44206,9.19,73340.0,-8.55,-41.35,-41.49,0,*57
1485223507.75,44207,9.19,73342.0,-8.51,-41.61,-41.61,0,*59
1485223509.01,44208,9.19,73340.0,-8.55,-41.55,-41.67,0,*53
1485223510.27,44209,9.19,73342.8,-8.51,-41.61,-41.81,0,*59
1485223511.48,44210,9.25,73346.3,-8.55,-41.41,-41.61,0,*59
1485223512.71,44211,9.19,73344.5,-8.51,-41.29,-41.49,0,*58
1485223513.94,44212,9.19,73344.8,-8.51,-41.29,-41.29,0,*5D
1485223515.17,44213,9.19,73342.8,-8.51,-41.41,-41.41,0,*5C
1485223516.44,44214,9.19,73342.8,-8.51,-41.49,-41.67,0,*57
1485223517.68,44215,9.19,73346.0,-8.51,-41.41,-41.41,0,*5A
1485223518.9,44216,9.19,73342.0,-8.51,-41.29,-41.49,0,*5F
1485223520.14,44217,9.19,73342.3,-8.51,-41.49,-41.61,0,*52
1485223521.4,44218,9.19,73342.0,-8.55,-41.55,-41.67,0,*52
1485223522.63,44219,9.19,73340.0,-8.51,-41.41,-41.61,0,*54
1485223523.83,44220,9.19,73340.0,-8.55,-41.29,-41.49,0,*5E
1485223525.07,44221,9.19,73342.8,-8.51,-41.41,-41.49,0,*55
1485223526.3,44222,9.19,73342.8,-8.51,-41.49,-41.61,0,*54
1485223527.53,44223,9.19,73342.3,-8.51,-41.49,-41.61,0,*55
1485223528.79,44224,9.19,73340.0,-8.51,-41.49,-41.67,0,*54
1485223530.03,44225,9.19,73346.8,-8.51,-41.61,-41.87,0,*51
1485223531.3,44226,9.19,73344.0,-8.51,-41.61,-41.67,0,*5C
1485223532.56,44227,9.19,73340.8,-8.49,-41.23,-41.23,0,*52
1485223533.8,44228,9.19,73342.5,-8.49,-41.35,-41.41,0,*5E
1485223535.03,44229,9.19,73344.5,-8.51,-41.29,-41.49,0,*53
1485223536.26,44230,9.19,73342.0,-8.51,-41.49,-41.49,0,*5D
1485223537.53,44231,9.19,73342.5,-8.51,-41.61,-41.67,0,*5A
1485223538.8,44232,9.19,73342.0,-8.51,-41.61,-41.67,0,*59
1485223540.03,44233,9.19,73342.3,-8.51,-41.61,-41.61,0,*5E
1485223541.24,44234,9.19,73346.0,-8.55,-41.29,-41.41,0,*53
1485223542.47,44235,9.19,73342.5,-8.51,-41.41,-41.41,0,*58
1485223543.68,44236,9.19,73342.5,-8.55,-41.29,-41.29,0,*5F
1485223544.94,44237,9.19,73340.0,-8.51,-41.11,-41.23,0,*5B
1485223546.17,44238,9.19,73344.5,-8.51,-41.29,-41.41,0,*5B
1485223547.4,44239,9.19,73340.3,-8.51,-41.41,-41.49,0,*5C
1485223548.64,44240,9.19,73340.3,-8.51,-41.49,-41.41,0,*52
1485223549.87,44241,9.19,73342.5,-8.51,-41.41,-41.49,0,*53
1485223551.11,44242,9.19,73342.3,-8.49,-41.41,-41.55,0,*54
1485223552.35,44243,9.19,73342.3,-8.49,-41.35,-41.41,0,*53
1485223553.56,44244,9.19,73340.0,-8.49,-41.41,-41.61,0,*55
1485223554.84,44245,9.19,73340.3,-8.51,-41.67,-41.81,0,*57
1485223556.07,44246,9.19,73342.8,-8.51,-41.11,-41.29,0,*57
1485223557.31,44247,9.19,73342.5,-8.49,-40.97,-41.17,0,*5D
1485223558.57,44248,9.19,73338.0,-8.47,-41.17,-41.23,0,*52
1485223559.81,44249,9.19,73338.3,-8.49,-41.23,-41.41,0,*5E
1485223561.05,44250,9.19,73342.0,-8.49,-41.23,-41.41,0,*56
1485223562.28,44251,9.19,73340.3,-8.49,-41.17,-41.23,0,*54
1485223563.49,44252,9.25,73346.0,-8.49,-41.41,-41.61,0,*52
1485223564.73,44253,9.19,73340.3,-8.49,-40.97,-41.17,0,*58
1485223565.99,44254,9.19,73342.3,-8.47,-41.03,-41.23,0,*5A
1485223567.26,44255,9.19,73340.5,-8.47,-41.41,-41.35,0,*5A
1485223568.52,44256,9.19,73342.0,-8.47,-41.55,-41.61,0,*5D
1485223569.77,44257,9.19,73340.5,-8.47,-41.55,-41.61,0,*5C
1485223571.01,44258,9.19,73342.0,-8.49,-41.55,-41.73,0,*5E
1485223572.27,44259,9.19,73342.0,-8.47,-41.73,-42.05,0,*57
1485223573.5,44260,9.19,73342.5,-8.47,-41.61,-41.73,0,*5C
1485223574.76,44261,9.19,73342.0,-8.47,-41.55,-41.61,0,*59
1485223576.05,44262,9.19,73340.5,-8.47,-41.55,-41.81,0,*54
1485223577.28,44263,9.19,73342.8,-8.49,-41.55,-41.61,0,*55
1485223578.56,44264,9.19,73340.8,-8.47,-41.55,-41.81,0,*52
1485223579.82,44265,9.19,73340.3,-8.47,-41.61,-41.81,0,*54
1485223581.06,44266,9.19,73340.0,-8.49,-41.41,-41.55,0,*52
1485223582.32,44267,9.19,73342.0,-8.47,-41.55,-41.73,0,*5C
1485223583.59,44268,9.19,73342.3,-8.49,-41.23,-41.35,0,*5E
1485223584.88,44269,9.19,73344.5,-8.47,-41.23,-41.23,0,*56
1485223586.14,44270,9.19,73344.8,-8.47,-41.35,-41.41,0,*5D
1485223587.38,44271,9.19,73342.8,-8.47,-41.61,-41.61,0,*5F
1485223588.61,44272,9.19,73342.8,-8.49,-41.55,-41.61,0,*55
1485223589.9,44273,9.19,73342.5,-8.47,-41.35,-41.35,0,*5D
1485223591.19,44274,9.19,73340.3,-8.47,-41.23,-41.35,0,*5D
1485223592.48,44275,9.19,73340.3,-8.47,-41.35,-41.35,0,*5B
1485223593.75,44276,9.19,73342.5,-8.47,-41.35,-41.41,0,*5B
1485223595.01,44277,9.19,73342.8,-8.47,-41.55,-41.61,0,*5E
1485223596.25,44278,9.19,73340.5,-8.49,-41.35,-41.41,0,*5B
1485223597.46,44279,9.25,73344.8,-8.45,-41.11,-41.11,0,*55
1485223598.73,44280,9.19,73336.3,-8.47,-41.17,-41.23,0,*56
1485223600.01,44281,9.19,73340.5,-8.47,-40.79,-40.97,0,*50
1485223601.28,44282,9.19,73342.3,-8.47,-40.85,-41.03,0,*5C
1485223602.52,44283,9.19,73342.8,-8.43,-40.91,-41.11,0,*5F
1485223603.73,44284,9.19,73342.0,-8.45,-41.11,-41.17,0,*51
1485223604.99,44285,9.19,73342.3,-8.43,-40.97,-41.17,0,*59
1485223606.23,44286,9.19,73342.5,-8.45,-41.29,-41.35,0,*58
1485223607.48,44287,9.19,73342.8,-8.43,-41.29,-41.35,0,*5F
1485223608.72,44288,9.19,73342.3,-8.43,-41.17,-41.11,0,*5B
1485223609.94,44289,9.19,73340.0,-8.43,-41.29,-41.17,0,*51
1485223611.17,44290,9.25,73342.5,-8.45,-40.91,-41.11,0,*5B
1485223612.45,44291,9.25,73342.0,-8.43,-40.97,-40.97,0,*55
1485223613.72,44292,9.19,73342.5,-8.45,-40.79,-40.97,0,*50
1485223615.01,44293,9.25,73346.0,-8.43,-40.97,-40.97,0,*57
1485223616.27,44294,9.19,73340.5,-8.43,-40.79,-40.91,0,*56
1485223617.54,44295,9.19,73340.8,-8.43,-40.91,-40.97,0,*57
1485223618.74,44296,9.19,73342.3,-8.41,-41.11,-41.29,0,*5B
1485223619.95,44297,9.19,73340.0,-8.41,-41.41,-41.41,0,*51
1485223621.16,44298,9.25,73346.3,-8.41,-41.41,-41.49,0,*56
1485223622.37,44299,9.19,73340.8,-8.41,-41.41,-41.49,0,*57
1485223623.57,44300,9.19,73342.8,-8.41,-41.41,-41.49,0,*56
1485223624.78,44301,9.19,73340.0,-8.41,-41.49,-41.61,0,*55
1485223625.99,44302,9.19,73338.3,-8.41,-41.29,-41.29,0,*5C
1485223627.2,44303,9.19,73340.8,-8.41,-41.41,-41.41,0,*5D
1485223628.4,44304,9.19,73342.3,-8.41,-41.29,-41.29,0,*5A
1485223629.62,44305,9.19,73342.5,-8.41,-41.03,-41.11,0,*58
1485223630.83,44306,9.19,73342.0,-8.41,-41.41,-41.41,0,*58
1485223632.03,44307,9.19,73340.3,-8.41,-41.29,-41.41,0,*57
1485223633.24,44308,9.19,73338.8,-8.41,-41.41,-41.61,0,*54
1485223634.45,44309,9.19,73340.8,-8.41,-41.41,-41.41,0,*57
1485223635.71,44310,9.19,73342.0,-8.41,-40.85,-40.85,0,*5F
1485223636.97,44311,9.19,73340.3,-8.39,-40.85,-40.91,0,*54
1485223638.21,44312,9.19,73340.3,-8.39,-40.73,-40.91,0,*5E
1485223639.44,44313,9.19,73342.5,-8.39,-40.47,-40.65,0,*53
1485223640.66,44314,9.19,73334.0,-8.39,-40.53,-40.65,0,*51
1485223641.93,44315,9.19,73342.3,-8.39,-40.85,-40.91,0,*50
1485223643.15,44316,9.19,73338.8,-8.37,-41.03,-41.03,0,*58
1485223644.41,44317,9.19,73340.8,-8.37,-40.85,-40.97,0,*5A
1485223645.65,44318,9.19,73338.5,-8.37,-41.17,-41.23,0,*51
1485223646.91,44319,9.19,73336.0,-8.37,-41.23,-41.23,0,*57
1485223648.15,44320,9.19,73338.0,-8.37,-41.17,-41.23,0,*5A
1485223649.35,44321,9.19,73338.8,-8.37,-41.17,-41.17,0,*5C
1485223650.62,44322,9.19,73338.5,-8.37,-41.23,-41.35,0,*58
1485223651.83,44323,9.19,73338.0,-8.37,-41.03,-41.17,0,*5B
1485223653.08,44324,9.19,73338.0,-8.35,-41.03,-41.03,0,*5B
1485223654.34,44325,9.19,73338.5,-8.35,-40.97,-41.17,0,*53
1485223655.6,44326,9.19,73336.5,-8.35,-40.97,-41.03,0,*55
1485223656.81,44327,9.19,73338.3,-8.37,-41.17,-41.17,0,*5A
1485223658.1,44328,9.19,73340.8,-8.35,-41.35,-41.35,0,*57
1485223659.39,44329,9.19,73338.3,-8.35,-41.23,-41.35,0,*51
1485223660.68,44330,9.19,73338.8,-8.35,-41.23,-41.23,0,*5E
1485223661.95,44331,9.19,73338.0,-8.37,-41.35,-41.35,0,*5D
1485223663.18,44332,9.19,73338.8,-8.35,-41.17,-41.17,0,*5C
1485223664.42,44333,9.19,73342.8,-8.35,-41.17,-41.17,0,*5D
1485223665.71,44334,9.19,73338.0,-8.35,-40.97,-40.97,0,*5A
1485223666.97,44335,9.19,73340.5,-8.33,-40.97,-40.97,0,*5D
1485223668.18,44336,9.19,73340.3,-8.33,-41.11,-41.11,0,*5E
1485223669.39,44337,9.19,73340.5,-8.33,-41.17,-41.29,0,*52
1485223670.59,44338,9.19,73340.8,-8.33,-41.29,-41.29,0,*50
1485223671.8,44339,9.19,73340.5,-8.33,-41.29,-41.29,0,*51
1485223673.01,44340,9.19,73338.3,-8.33,-41.17,-41.17,0,*5F
1485223674.21,44341,9.19,73338.8,-8.33,-41.11,-41.17,0,*58
1485223675.42,44342,9.19,73336.0,-8.33,-41.11,-41.17,0,*5B
1485223676.63,44343,9.19,73340.0,-8.33,-41.11,-41.11,0,*5C
1485223677.84,44344,9.19,73338.3,-8.33,-41.17,-41.17,0,*5B
1485223679.05,44345,9.19,73338.8,-8.29,-41.17,-41.29,0,*5C
1485223680.26,44346,9.19,73340.3,-8.33,-41.17,-41.29,0,*54
1485223681.47,44347,9.25,73342.8,-8.33,-41.17,-41.17,0,*58
1485223682.7,44348,9.19,73340.3,-8.33,-41.29,-41.35,0,*5A
1485223683.9,44349,9.19,73340.0,-8.33,-41.17,-41.29,0,*5B
1485223685.14,44350,9.19,73340.5,-8.33,-41.35,-41.49,0,*55
1485223686.37,44351,9.19,73338.3,-8.29,-41.29,-41.35,0,*59
1485223687.59,44352,9.19,73336.3,-8.29,-41.11,-41.11,0,*57
1485223688.8,44353,9.19,73338.3,-8.33,-41.17,-41.29,0,*50
1485223690.06,44354,9.19,73342.0,-8.33,-41.35,-41.35,0,*5A
1485223691.3,44355,9.19,73338.0,-8.29,-41.35,-41.29,0,*5D
1485223692.51,44356,9.19,73340.5,-8.33,-41.17,-41.29,0,*55
1485223693.71,44357,9.19,73340.5,-8.33,-41.29,-41.17,0,*54
1485223694.95,44358,9.19,73336.0,-8.33,-41.35,-41.49,0,*5D
1485223696.19,44359,9.19,73338.0,-8.33,-41.35,-41.29,0,*5A
1485223697.45,44360,9.19,73342.5,-8.29,-41.35,-41.35,0,*56
1485223698.69,44361,9.19,73338.3,-8.29,-41.29,-41.35,0,*5A
1485223699.9,44362,9.19,73338.5,-8.33,-41.17,-41.29,0,*52
1485223701.13,44363,9.19,73334.0,-8.29,-41.29,-41.35,0,*58
1485223702.34,44364,9.19,73340.5,-8.29,-41.17,-41.29,0,*5F
1485223703.56,44365,9.19,73338.8,-8.29,-41.11,-41.11,0,*53
1485223704.79,44366,9.19,73338.8,-8.33,-40.97,-41.29,0,*5F
1485223706.0,44367,9.19,73338.8,-8.29,-41.17,-41.29,0,*5C